This is the latest recevied weather packets stored in our database for station/object WI5KEY. If no packets are shown the sender has not sent any weather packets the latest 10 day(s).
| Time | Temp. | Humidity | Pressure | Rain* | Wind** | Luminosity | Snow |
|---|---|---|---|---|---|---|---|
| 1777502739 | 30.56° C | 74% | 1007.9 hPa | 0 mm | - | - | - |
| 1777501844 | 30.56° C | 74% | 1007.9 hPa | 0 mm | - | - | - |
| 1777500935 | 30° C | 75% | 1008.1 hPa | 0 mm | - | - | - |
| 1777500037 | 30° C | 76% | 1008 hPa | 0 mm | - | - | - |
| 1777499130 | 29.44° C | 75% | 1008.2 hPa | 0 mm | - | - | - |
| 1777498229 | 29.44° C | 76% | 1008.5 hPa | 0 mm | - | - | - |
| 1777497327 | 28.89° C | 78% | 1008.9 hPa | 0 mm | - | - | - |
| 1777496421 | 28.33° C | 78% | 1009.2 hPa | 0 mm | - | - | - |
| 1777495518 | 28.33° C | 79% | 1009.6 hPa | 0 mm | - | - | - |
| 1777494616 | 27.78° C | 80% | 1010 hPa | 0 mm | - | - | - |
| 1777493720 | 27.78° C | 80% | 1010.2 hPa | 0 mm | - | - | - |
| 1777492822 | 27.78° C | 80% | 1009.9 hPa | 0 mm | - | - | - |
| 1777491915 | 27.78° C | 81% | 1010.4 hPa | 0 mm | - | - | - |
| 1777491027 | 27.22° C | 82% | 1010.6 hPa | 0 mm | - | - | - |
| 1777490112 | 27.22° C | 81% | 1011 hPa | 0 mm | - | - | - |
| 1777489216 | 27.78° C | 81% | 1011.1 hPa | 0 mm | - | - | - |
| 1777488311 | 27.78° C | 81% | 1010.8 hPa | 0 mm | - | - | - |
| 1777487410 | 27.78° C | 82% | 1010.8 hPa | 0 mm | - | - | - |
| 1777486510 | 27.78° C | 81% | 1010.8 hPa | 0 mm | - | - | - |
| 1777485609 | 27.78° C | 81% | 1011.3 hPa | 0 mm | - | - | - |
| 1777484710 | 27.78° C | 81% | 1011.3 hPa | 0 mm | - | - | - |
| 1777483808 | 27.78° C | 81% | 1011 hPa | 0 mm | - | - | - |
| 1777482905 | 27.22° C | 83% | 1011.1 hPa | 0 mm | - | - | - |
| 1777482003 | 27.22° C | 82% | 1011.5 hPa | 0 mm | - | - | - |
| 1777481108 | 27.22° C | 83% | 1011.3 hPa | 0 mm | - | - | - |
* Rain latest hour (hover to see other rain measurements)
** Current wind speed in m/s (hover to see current wind gust speed)